Weather History for Tucuman, Argentina

Change the Weather History Date:

Tuesday, August 19, 2014

  Actual Average Record
Temperature  
Mean Temperature 75 °F -  
Max Temperature 93 °F 71 °F 93 °F (2014)
Min Temperature 57 °F 46 °F 6 °F (2003)
Cooling Degree Days 10    
Growing Degree Days 25 (Base 50)    
Moisture  
Dew Point 56 °F    
Average Humidity 54    
Maximum Humidity 82    
Minimum Humidity 23    
Precipitation  
Precipitation 0.00 in - - ()
Sea Level Pressure  
Sea Level Pressure 29.95 in    
Wind  
Wind Speed 8 mph ()    
Max Wind Speed 16 mph    
Max Gust Speed 23 mph    
Visibility 4.6 miles    
Events      
Averages and records for this station are not official NWS values.
T = Trace of Precipitation, MM = Missing Value Source: Averaged Metar Reports

Daily Weather History Graph

Daily Weather History Graph

Search for Another Location

Airport:

Trip Planner

Search our weather history database for the weather conditions in past years. The results will help you decide how hot, cold, wet, or windy it might be!

Date:

Astronomy

Aug. 19, 2014 Rise Set
Actual Time 7:46 AM ART 7:01 PM ART
Civil Twilight 7:22 AM ART 7:25 PM ART
Nautical Twilight 6:55 AM ART 7:52 PM ART
Astronomical Twilight 6:28 AM ART 8:20 PM ART
Moon 3:12 AM ART (8/19) 2:15 PM ART (8/19)
Length of Visible Light 12h 02m
Length of Day
11h 15m
Waning Crescent, 29% of the Moon is Illuminated
Aug 19
Waning Crescent
Aug 25
New
Sep 2
First Quarter
Sep 8
Full
Sep 15
Last Quarter

Hourly Weather History & Observations

Time (ART) Temp. Heat Index Dew Point Humidity Pressure Visibility Wind Dir Wind Speed Gust Speed Precip Events Conditions
12:00 AM 66 °F - 56 °F 62% 29.91 in 6 mi NW 9.2 mph - -  
12:00 AM 66.2 °F - 55.4 °F 68% 30.01 in - NW 9.2 mph - N/A   Clear
1:00 AM 64.4 °F - 55.4 °F 73% 29.98 in - NW 9.2 mph - N/A   Clear
2:00 AM 64.4 °F - 55.4 °F 73% 29.98 in - NW 11.5 mph - N/A   Clear
3:00 AM 70 °F - 55 °F 49% 29.85 in 7 mi NW 11.5 mph - -  
3:00 AM 69.8 °F - 55.4 °F 60% 29.98 in - NW 11.5 mph - N/A   Clear
4:00 AM 69.8 °F - 53.6 °F 56% 29.95 in - NW 11.5 mph - N/A   Clear
5:00 AM 66.2 °F - 55.4 °F 68% 29.98 in - NW 9.2 mph - N/A   Clear
6:00 AM 63 °F - 54 °F 64% 29.86 in 7 mi NW 11.5 mph - -  
6:00 AM 62.6 °F - 53.6 °F 72% 29.98 in - NW 11.5 mph - N/A   Clear
7:00 AM 59.0 °F - 51.8 °F 77% 29.98 in - West 9.2 mph - N/A   Clear
8:00 AM 59.0 °F - 53.6 °F 82% 30.01 in 5.0 mi West 6.9 mph - N/A   Unknown
9:00 AM 64 °F - 57 °F 71% 29.96 in 5 mi NW 4.6 mph - -   Smoke
9:00 AM 64.4 °F - 57.2 °F 77% 30.04 in 5.0 mi NW 4.6 mph - N/A   Unknown
10:00 AM 69.8 °F - 53.6 °F 56% 30.04 in 5.0 mi West 8.1 mph - N/A   Unknown
11:00 AM 77.0 °F - 57.2 °F 50% 30.04 in 3.7 mi Calm Calm - N/A   Unknown
12:00 PM 81 °F - 58 °F 34% 29.94 in 4 mi East 4.6 mph - -   Smoke
12:00 PM 80.6 °F 80.8 °F 57.2 °F 45% 30.04 in 3.7 mi East 4.6 mph - N/A   Unknown
1:00 PM 82.4 °F 82.0 °F 57.2 °F 42% 30.01 in 4.3 mi South 2.3 mph - N/A   Unknown
2:00 PM 86.0 °F 85.4 °F 59.0 °F 40% 29.98 in 4.3 mi South 2.3 mph - N/A   Unknown
3:00 PM 90 °F - 59 °F 25% 29.84 in 4 mi SW 4.6 mph - -   Smoke
3:00 PM 89.6 °F 88.9 °F 59.0 °F 36% 29.95 in 4.3 mi SW 4.6 mph - N/A   Unknown
4:00 PM 91.4 °F 89.4 °F 55.4 °F 29% 29.92 in 4.3 mi NE 9.2 mph - N/A   Unknown
5:00 PM 93.2 °F 91.3 °F 55.4 °F 28% 29.92 in 4.3 mi North 13.8 mph - N/A   Unknown
6:00 PM 89 °F - 56 °F 23% 29.81 in 4 mi NE 16.1 mph - -   Smoke
6:00 PM 89.6 °F 87.7 °F 55.4 °F 31% 29.92 in 4.3 mi NE 16.1 mph 23.0 mph N/A   Unknown
8:00 PM 78.8 °F - 57.2 °F 47% 29.95 in 4.3 mi North 6.9 mph - N/A   Unknown
9:00 PM 72 °F - 60 °F 56% 29.88 in 4 mi NW 6.9 mph - -   Smoke
9:00 PM 71.6 °F - 59.0 °F 64% 29.95 in 4.3 mi NW 6.9 mph - N/A   Unknown
10:00 PM 71.6 °F - 57.2 °F 60% 29.98 in 4.3 mi NW 6.9 mph - N/A   Unknown